Weather History for Waterloo, IA

Change the Weather History Date:

Saturday, October 6, 2012

  Actual Average Record
Temperature  
Mean Temperature 37 °F 54 °F  
Max Temperature 45 °F 66 °F 95 °F (1963)
Min Temperature 28 °F 42 °F 18 °F (1935)
Degree Days  
Heating Degree Days 28 12  
Month to date heating degree days 82 64  
Since 1 July heating degree days 264 222  
Cooling Degree Days 0 1  
Month to date cooling degree days 0 6  
Year to date cooling degree days 1076 796  
Moisture  
Dew Point 24 °F    
Average Humidity 62    
Maximum Humidity 78    
Minimum Humidity 45    
Precipitation  
Precipitation 0.00 in 0.09 in 1.15 in (1914)
Month to date precipitation 0.01 0.54  
Year to date precipitation 17.33 29.45  
Snow  
Snow 0.00 in 0.00 in - ()
Month to date snowfall 0.0 0.0  
Since 1 July snowfall 0.0 0.0  
Since 1 September snowfall 0.0 0.0  
Snow Depth 0.00 in    
Sea Level Pressure  
Sea Level Pressure 30.24 in    
Wind  
Wind Speed 10 mph (NW)    
Max Wind Speed 21 mph    
Max Gust Speed 25 mph    
Visibility 10 miles    
Events      
T = Trace of Precipitation, MM = Missing Value Source: NWS Daily Summary

Daily Weather History Graph

Daily Weather History Graph

Search for Another Location

Airport:

Trip Planner

Search our weather history database for the weather conditions in past years. The results will help you decide how hot, cold, wet, or windy it might be!

Date:

Astronomy

Oct. 06, 2012 Rise Set
Actual Time 7:12 AM CDT 6:41 PM CDT
Civil Twilight 6:44 AM CDT 7:09 PM CDT
Nautical Twilight 6:12 AM CDT 7:42 PM CDT
Astronomical Twilight 5:39 AM CDT 8:14 PM CDT
Moon 10:51 PM CDT (10/6) 1:13 PM CDT (10/6)
Length of Visible Light 12h 24m
Length of Day
11h 28m
Waning Gibbous, 65% of the Moon is Illuminated
Oct 6
Waning Gibbous
Oct 8
Last Quarter
Oct 15
New
Oct 21
First Quarter
Oct 29
Full

Hourly Weather History & Observations

Time (CDT) Temp. Windchill Dew Point Humidity Pressure Visibility Wind Dir Wind Speed Gust Speed Precip Events Conditions
12:54 AM 33.1 °F 26.9 °F 21.9 °F 64% 30.20 in 10.0 mi West 6.9 mph - N/A   Clear
1:54 AM 33.1 °F 25.5 °F 23.0 °F 66% 30.21 in 10.0 mi West 9.2 mph - N/A   Clear
2:54 AM 30.9 °F 24.3 °F 21.9 °F 69% 30.21 in 10.0 mi West 6.9 mph - N/A   Clear
3:54 AM 32.0 °F 24.8 °F 21.9 °F 66% 30.20 in 10.0 mi WNW 8.1 mph - N/A   Mostly Cloudy
4:54 AM 30.0 °F 24.1 °F 21.9 °F 72% 30.21 in 10.0 mi WNW 5.8 mph - N/A   Clear
5:54 AM 28.9 °F 21.1 °F 21.9 °F 75% 30.22 in 10.0 mi West 8.1 mph - N/A   Clear
6:54 AM 28.9 °F 20.4 °F 23.0 °F 78% 30.22 in 10.0 mi WNW 9.2 mph - N/A   Clear
7:51 AM 30.2 °F 21.3 °F 24.8 °F 80% 30.21 in 10.0 mi WNW 10.4 mph - N/A   Mostly Cloudy
7:54 AM 30.9 °F 22.2 °F 25.0 °F 79% 30.24 in 10.0 mi WNW 10.4 mph - N/A   Mostly Cloudy
8:35 AM 33.8 °F 26.4 °F 26.6 °F 75% 30.23 in 10.0 mi West 9.2 mph - N/A   Scattered Clouds
8:54 AM 36.0 °F 28.5 °F 26.1 °F 67% 30.26 in 10.0 mi WNW 10.4 mph - N/A   Clear
9:26 AM 39.2 °F 32.0 °F 26.6 °F 61% 30.24 in 10.0 mi NW 11.5 mph - N/A   Mostly Cloudy
9:54 AM 39.0 °F 30.3 °F 27.0 °F 62% 30.27 in 10.0 mi NNW 16.1 mph 24.2 mph N/A   Overcast
10:38 AM 39.2 °F 30.8 °F 26.6 °F 61% 30.25 in 10.0 mi NNW 15.0 mph 23.0 mph N/A   Overcast
10:54 AM 41.0 °F 32.5 °F 26.1 °F 55% 30.28 in 10.0 mi NNW 17.3 mph 23.0 mph N/A   Overcast
11:54 AM 42.1 °F 33.9 °F 25.0 °F 51% 30.27 in 10.0 mi North 17.3 mph 25.3 mph N/A   Overcast
12:54 PM 42.1 °F 33.6 °F 26.1 °F 53% 30.27 in 10.0 mi North 18.4 mph - N/A   Overcast
1:54 PM 45.0 °F 38.9 °F 25.0 °F 46% 30.25 in 10.0 mi NNW 12.7 mph 19.6 mph N/A   Overcast
2:54 PM 44.1 °F 36.2 °F 24.1 °F 45% 30.25 in 10.0 mi NNW 18.4 mph 21.9 mph N/A   Overcast
3:54 PM 43.0 °F 36.8 °F 25.0 °F 49% 30.25 in 10.0 mi NNW 11.5 mph - N/A   Overcast
4:54 PM 42.1 °F 35.7 °F 23.0 °F 47% 30.26 in 10.0 mi NW 11.5 mph - N/A   Overcast
5:54 PM 42.1 °F 36.6 °F 23.0 °F 47% 30.26 in 10.0 mi NNW 9.2 mph - N/A   Overcast
6:54 PM 41.0 °F 35.8 °F 24.1 °F 51% 30.26 in 10.0 mi North 8.1 mph - N/A   Overcast
7:54 PM 39.9 °F 35.1 °F 24.1 °F 53% 30.27 in 10.0 mi North 6.9 mph - N/A   Overcast
8:54 PM 39.9 °F 35.1 °F 24.1 °F 53% 30.27 in 10.0 mi NNW 6.9 mph - N/A   Overcast
9:54 PM 39.0 °F 35.7 °F 24.1 °F 55% 30.28 in 10.0 mi NW 4.6 mph - N/A   Overcast
10:54 PM 39.0 °F 36.8 °F 24.1 °F 55% 30.28 in 10.0 mi WNW 3.5 mph - N/A   Overcast
11:54 PM 37.0 °F 32.4 °F 24.1 °F 59% 30.27 in 10.0 mi West 5.8 mph - N/A   Overcast